BEL1EZ EBBR-LFMN

Flight info

Callsign BEL1EZ
Flight time 1h 28m
Altitude 39000
Route ROUSY DCT GTQ DCT POGOL DCT LASAT DCT MOROK DCT GILIR DCT GEVEA/N0459F370 DCT KOGAS DCT MEDAM/N0468F290 DCT VEVAR
Aircraft A319/M-SDE3FGHIRWY/LB1

Departure

Time 2026-05-06 06:27
Airport Brussels Airport (EBBR)

Arrival

Time 2026-05-06 07:56
Airport Nice-Côte d'Azur Airport (LFMN)
Time Latitude Longitude Altitude Speed Heading
2026-05-06 06:10 50.89297 4.48641 144 ft 0 kts 160°
2026-05-06 06:24 50.89271 4.48657 143 ft 13 kts 155°
2026-05-06 06:24 50.89274 4.48804 142 ft 16 kts 68°
2026-05-06 06:24 50.89314 4.48979 142 ft 15 kts 73°
2026-05-06 06:24 50.89252 4.49063 140 ft 16 kts 194°
2026-05-06 06:25 50.89140 4.49018 140 ft 17 kts 194°
2026-05-06 06:25 50.89037 4.48976 145 ft 14 kts 194°
2026-05-06 06:25 50.88873 4.48908 154 ft 13 kts 194°
2026-05-06 06:26 50.88780 4.48885 159 ft 13 kts 165°
2026-05-06 06:26 50.88738 4.48990 160 ft 12 kts 104°
2026-05-06 06:26 50.88730 4.49143 156 ft 16 kts 59°
2026-05-06 06:26 50.88842 4.49203 155 ft 23 kts 14°
2026-05-06 06:27 50.89284 4.49383 141 ft 106 kts 14°
2026-05-06 06:27 50.90208 4.49757 230 ft 156 kts 14°
2026-05-06 06:27 50.91258 4.50243 947 ft 157 kts 21°
2026-05-06 06:27 50.92154 4.51231 1715 ft 159 kts 47°
2026-05-06 06:28 50.92600 4.52833 2435 ft 163 kts 85°
2026-05-06 06:28 50.92320 4.54572 3158 ft 169 kts 117°
2026-05-06 06:28 50.91647 4.56154 3747 ft 182 kts 120°
2026-05-06 06:28 50.90896 4.57928 4136 ft 206 kts 121°
2026-05-06 06:29 50.90048 4.59926 4492 ft 232 kts 121°
2026-05-06 06:29 50.88872 4.61863 4955 ft 262 kts 149°
2026-05-06 06:29 50.87050 4.62598 5703 ft 278 kts 174°
2026-05-06 06:29 50.85103 4.62859 6707 ft 283 kts 175°
2026-05-06 06:30 50.83130 4.63101 7727 ft 286 kts 175°
2026-05-06 06:30 50.81141 4.63342 8738 ft 288 kts 175°
2026-05-06 06:30 50.79131 4.63598 9730 ft 291 kts 175°
2026-05-06 06:30 50.77081 4.63902 10396 ft 307 kts 171°
2026-05-06 06:31 50.74941 4.64818 10749 ft 332 kts 158°
2026-05-06 06:31 50.72855 4.66657 11062 ft 355 kts 143°
2026-05-06 06:31 50.71087 4.69412 11669 ft 366 kts 128°
2026-05-06 06:31 50.69783 4.72881 12435 ft 372 kts 114°
2026-05-06 06:32 50.68972 4.76771 13218 ft 376 kts 107°
2026-05-06 06:32 50.68222 4.80750 13967 ft 380 kts 107°
2026-05-06 06:32 50.67469 4.84760 14705 ft 384 kts 107°
2026-05-06 06:32 50.66569 4.88744 15418 ft 387 kts 116°
2026-05-06 06:33 50.65236 4.92421 16118 ft 389 kts 127°
2026-05-06 06:33 50.63484 4.95677 16795 ft 390 kts 137°
2026-05-06 06:33 50.61534 4.98668 17472 ft 393 kts 137°
2026-05-06 06:33 50.59569 5.01692 18134 ft 396 kts 137°
2026-05-06 06:34 50.57599 5.04744 18780 ft 400 kts 137°
2026-05-06 06:34 50.55608 5.07828 19405 ft 403 kts 137°
2026-05-06 06:34 50.53605 5.10930 19999 ft 406 kts 137°
2026-05-06 06:34 50.51581 5.14061 20565 ft 410 kts 137°
2026-05-06 06:35 50.49538 5.17216 21113 ft 413 kts 137°
2026-05-06 06:35 50.47485 5.20382 21646 ft 416 kts 137°
2026-05-06 06:35 50.46085 5.22537 21991 ft 418 kts 137°
2026-05-06 06:35 50.43993 5.25754 22469 ft 421 kts 137°
2026-05-06 06:36 50.41889 5.28981 22952 ft 425 kts 137°
2026-05-06 06:36 50.39771 5.32229 23410 ft 428 kts 138°
2026-05-06 06:36 50.37631 5.35500 23854 ft 431 kts 138°
2026-05-06 06:36 50.35474 5.38786 24294 ft 434 kts 138°
2026-05-06 06:37 50.33300 5.42092 24740 ft 437 kts 138°
2026-05-06 06:37 50.31112 5.45412 25171 ft 439 kts 138°
2026-05-06 06:37 50.28912 5.48757 25587 ft 442 kts 138°
2026-05-06 06:37 50.26703 5.52116 26005 ft 445 kts 138°
2026-05-06 06:38 50.24481 5.55492 26409 ft 447 kts 138°
2026-05-06 06:38 50.22241 5.58886 26808 ft 449 kts 138°
2026-05-06 06:38 50.19997 5.62285 27185 ft 451 kts 138°
2026-05-06 06:38 50.17739 5.65698 27554 ft 453 kts 138°
2026-05-06 06:39 50.15495 5.69087 27925 ft 455 kts 138°
2026-05-06 06:39 50.13213 5.72527 28257 ft 457 kts 138°
2026-05-06 06:39 50.10917 5.75973 28597 ft 458 kts 139°
2026-05-06 06:39 50.08426 5.79074 28915 ft 458 kts 148°
2026-05-06 06:40 50.05672 5.81520 29286 ft 455 kts 157°
2026-05-06 06:40 50.02735 5.83291 29744 ft 451 kts 164°
2026-05-06 06:40 49.99750 5.84814 30204 ft 450 kts 163°
2026-05-06 06:40 49.96776 5.86349 30645 ft 449 kts 163°
2026-05-06 06:41 49.93814 5.87889 31065 ft 448 kts 163°
2026-05-06 06:41 49.90862 5.89423 31455 ft 448 kts 163°
2026-05-06 06:41 49.87909 5.90952 31856 ft 448 kts 163°
2026-05-06 06:41 49.84958 5.92476 32248 ft 447 kts 163°
2026-05-06 06:42 49.82005 5.93999 32648 ft 447 kts 163°
2026-05-06 06:42 49.79057 5.95516 33031 ft 446 kts 163°
2026-05-06 06:42 49.76108 5.97024 33396 ft 446 kts 163°
2026-05-06 06:42 49.73162 5.98526 33765 ft 446 kts 163°
2026-05-06 06:43 49.70214 6.00028 34146 ft 446 kts 163°
2026-05-06 06:43 49.67267 6.01531 34523 ft 445 kts 163°
2026-05-06 06:43 49.64329 6.03029 34887 ft 445 kts 163°
2026-05-06 06:43 49.61387 6.04527 35237 ft 445 kts 163°
2026-05-06 06:44 49.58455 6.06016 35569 ft 444 kts 163°
2026-05-06 06:44 49.55519 6.07506 35883 ft 444 kts 163°
2026-05-06 06:44 49.52582 6.08996 36179 ft 444 kts 163°
2026-05-06 06:44 49.49662 6.10555 36467 ft 445 kts 159°
2026-05-06 06:45 49.46894 6.12713 36728 ft 448 kts 150°
2026-05-06 06:45 49.44370 6.15539 37044 ft 449 kts 143°
2026-05-06 06:45 49.41952 6.18567 37396 ft 447 kts 143°
2026-05-06 06:45 49.39540 6.21571 37742 ft 445 kts 143°
2026-05-06 06:46 49.37128 6.24558 38010 ft 445 kts 144°
2026-05-06 06:46 49.34721 6.27525 38247 ft 445 kts 144°
2026-05-06 06:46 49.32304 6.30500 38469 ft 445 kts 144°
2026-05-06 06:46 49.29886 6.33470 38677 ft 445 kts 144°
2026-05-06 06:47 49.27458 6.36449 38787 ft 447 kts 144°
2026-05-06 06:47 49.22607 6.42398 38793 ft 447 kts 144°
2026-05-06 06:48 49.17753 6.48351 38804 ft 447 kts 144°
2026-05-06 06:48 49.12894 6.54291 38803 ft 447 kts 144°
2026-05-06 06:49 49.08031 6.60219 38804 ft 447 kts 144°
2026-05-06 06:49 49.03150 6.66125 38807 ft 447 kts 147°
2026-05-06 06:50 48.97674 6.70281 38809 ft 438 kts 167°
2026-05-06 06:50 48.91691 6.71349 38811 ft 432 kts 184°
2026-05-06 06:51 48.85675 6.71083 38814 ft 433 kts 184°
2026-05-06 06:51 48.79676 6.70865 38818 ft 433 kts 183°
2026-05-06 06:52 48.73660 6.70643 38821 ft 433 kts 184°
2026-05-06 06:52 48.67634 6.70415 38823 ft 433 kts 184°
2026-05-06 06:53 48.61609 6.70174 38824 ft 433 kts 184°
2026-05-06 06:53 48.55580 6.69938 38827 ft 433 kts 184°
2026-05-06 06:54 48.49546 6.69693 38829 ft 434 kts 184°
2026-05-06 06:54 48.43520 6.69461 38830 ft 433 kts 184°
2026-05-06 06:55 48.37489 6.69233 38830 ft 433 kts 184°
2026-05-06 06:55 48.31459 6.69006 38831 ft 433 kts 184°
2026-05-06 06:56 48.25434 6.68779 38826 ft 433 kts 184°
2026-05-06 06:56 48.19407 6.68550 38828 ft 433 kts 184°
2026-05-06 06:57 48.13419 6.68322 38831 ft 433 kts 184°
2026-05-06 06:57 48.07355 6.68095 38834 ft 433 kts 184°
2026-05-06 06:58 48.01366 6.67866 38835 ft 433 kts 184°
2026-05-06 06:58 47.95345 6.67635 38841 ft 433 kts 184°
2026-05-06 06:59 47.89325 6.67395 38847 ft 432 kts 184°
2026-05-06 06:59 47.83313 6.67182 38847 ft 432 kts 184°
2026-05-06 07:00 47.77303 6.66959 38846 ft 432 kts 184°
2026-05-06 07:00 47.71297 6.66732 38843 ft 431 kts 184°
2026-05-06 07:01 47.65292 6.66494 38845 ft 431 kts 184°
2026-05-06 07:01 47.59286 6.66266 38852 ft 432 kts 184°
2026-05-06 07:02 47.53273 6.66050 38856 ft 432 kts 184°
2026-05-06 07:02 47.47273 6.65834 38857 ft 431 kts 184°
2026-05-06 07:03 47.41347 6.64828 38854 ft 427 kts 198°
2026-05-06 07:03 47.36110 6.61009 38854 ft 423 kts 218°
2026-05-06 07:04 47.31587 6.55385 38854 ft 423 kts 220°
2026-05-06 07:04 47.27128 6.49803 38851 ft 423 kts 220°
2026-05-06 07:05 47.22640 6.44197 38849 ft 424 kts 220°
2026-05-06 07:05 47.18141 6.38581 38853 ft 424 kts 220°
2026-05-06 07:06 47.13642 6.32976 38854 ft 424 kts 220°
2026-05-06 07:06 47.09098 6.27460 38856 ft 424 kts 215°
2026-05-06 07:07 47.03767 6.23871 38852 ft 426 kts 195°
2026-05-06 07:07 46.97854 6.22790 38848 ft 428 kts 187°
2026-05-06 07:08 46.91921 6.21995 38850 ft 428 kts 188°
2026-05-06 07:08 46.85975 6.21195 38854 ft 429 kts 188°
2026-05-06 07:09 46.80035 6.20406 38854 ft 429 kts 187°
2026-05-06 07:09 46.74088 6.19617 38858 ft 429 kts 187°
2026-05-06 07:10 46.68178 6.18834 38865 ft 429 kts 188°
2026-05-06 07:10 46.62221 6.18041 38867 ft 430 kts 188°
2026-05-06 07:11 46.56272 6.17264 38863 ft 429 kts 188°
2026-05-06 07:11 46.50319 6.16485 38869 ft 429 kts 188°
2026-05-06 07:12 46.44376 6.15700 38871 ft 429 kts 188°
2026-05-06 07:12 46.38431 6.14914 38875 ft 429 kts 187°
2026-05-06 07:13 46.32478 6.14134 38875 ft 429 kts 188°
2026-05-06 07:13 46.26512 6.13734 38882 ft 433 kts 177°
2026-05-06 07:14 46.20649 6.15988 38881 ft 441 kts 161°
2026-05-06 07:14 46.14969 6.19334 38883 ft 440 kts 162°
2026-05-06 07:15 46.10239 6.22080 38887 ft 441 kts 162°
2026-05-06 07:15 46.04535 6.25383 38880 ft 440 kts 162°
2026-05-06 07:16 45.98855 6.28677 38876 ft 440 kts 162°
2026-05-06 07:16 45.93160 6.31972 38872 ft 441 kts 162°
2026-05-06 07:17 45.87467 6.35250 38876 ft 440 kts 162°
2026-05-06 07:17 45.81803 6.38575 38882 ft 442 kts 158°
2026-05-06 07:18 45.76612 6.43403 38882 ft 448 kts 149°
2026-05-06 07:18 45.71543 6.48584 38885 ft 448 kts 149°
2026-05-06 07:19 45.66462 6.53733 38884 ft 447 kts 149°
2026-05-06 07:19 45.61382 6.58863 38883 ft 447 kts 149°
2026-05-06 07:20 45.56305 6.63998 38884 ft 447 kts 149°
2026-05-06 07:20 45.51233 6.69124 38881 ft 446 kts 149°
2026-05-06 07:21 45.46166 6.74227 38882 ft 446 kts 150°
2026-05-06 07:21 45.41105 6.79324 38886 ft 446 kts 150°
2026-05-06 07:22 45.36056 6.84387 38901 ft 447 kts 150°
2026-05-06 07:22 45.30985 6.89458 38917 ft 446 kts 150°
2026-05-06 07:22 45.28378 6.91819 38692 ft 439 kts 158°
2026-05-06 07:23 45.25609 6.93517 38449 ft 429 kts 167°
2026-05-06 07:23 45.22744 6.94539 38193 ft 421 kts 176°
2026-05-06 07:23 45.19845 6.95026 37944 ft 418 kts 179°
2026-05-06 07:23 45.16960 6.95469 37696 ft 417 kts 179°
2026-05-06 07:24 45.14084 6.95923 37447 ft 415 kts 179°
2026-05-06 07:24 45.11222 6.96378 37199 ft 413 kts 179°
2026-05-06 07:24 45.08375 6.96830 36948 ft 411 kts 179°
2026-05-06 07:24 45.05544 6.97274 36699 ft 409 kts 179°
2026-05-06 07:25 45.02714 6.97716 36447 ft 408 kts 179°
2026-05-06 07:25 44.99899 6.98155 36198 ft 407 kts 179°
2026-05-06 07:25 44.97082 6.98595 35943 ft 407 kts 179°
2026-05-06 07:25 44.94261 6.99034 35695 ft 409 kts 179°
2026-05-06 07:26 44.91432 6.99473 35442 ft 410 kts 180°
2026-05-06 07:26 44.88586 6.99914 35191 ft 410 kts 180°
2026-05-06 07:26 44.85757 7.00351 34947 ft 409 kts 180°
2026-05-06 07:26 44.82921 7.00790 34692 ft 408 kts 180°
2026-05-06 07:27 44.80101 7.01227 34437 ft 408 kts 179°
2026-05-06 07:27 44.77279 7.01753 34187 ft 409 kts 178°
2026-05-06 07:27 44.74469 7.02397 33934 ft 409 kts 177°
2026-05-06 07:27 44.71698 7.03099 33692 ft 410 kts 176°
2026-05-06 07:28 44.68866 7.03837 33429 ft 409 kts 176°
2026-05-06 07:28 44.66057 7.04558 33186 ft 410 kts 176°
2026-05-06 07:28 44.60435 7.05936 32677 ft 411 kts 177°
2026-05-06 07:29 44.57650 7.06595 32425 ft 411 kts 177°
2026-05-06 07:29 44.54787 7.07265 32173 ft 413 kts 177°
2026-05-06 07:29 44.51951 7.07927 31911 ft 413 kts 177°
2026-05-06 07:29 44.49112 7.08593 31660 ft 414 kts 177°
2026-05-06 07:30 44.46305 7.09254 31429 ft 415 kts 177°
2026-05-06 07:30 44.43417 7.09933 31170 ft 416 kts 177°
2026-05-06 07:30 44.40568 7.10604 30757 ft 415 kts 177°
2026-05-06 07:30 44.37711 7.11277 29650 ft 418 kts 177°
2026-05-06 07:31 44.34869 7.11949 28548 ft 421 kts 177°
2026-05-06 07:31 44.31932 7.12643 27410 ft 424 kts 176°
2026-05-06 07:31 44.29053 7.13319 26286 ft 426 kts 176°
2026-05-06 07:31 44.26135 7.14007 25154 ft 425 kts 176°
2026-05-06 07:32 44.23179 7.14711 24004 ft 426 kts 174°
2026-05-06 07:32 44.20339 7.15795 22875 ft 432 kts 166°
2026-05-06 07:32 44.17555 7.17408 21721 ft 435 kts 162°
2026-05-06 07:32 44.14771 7.19056 20904 ft 430 kts 162°
2026-05-06 07:33 44.12035 7.20671 20602 ft 426 kts 162°
2026-05-06 07:33 44.09309 7.22267 20235 ft 424 kts 162°
2026-05-06 07:33 44.06595 7.23845 19866 ft 421 kts 162°
2026-05-06 07:33 44.03900 7.25414 19508 ft 419 kts 162°
2026-05-06 07:34 44.01222 7.26976 19151 ft 417 kts 161°
2026-05-06 07:34 43.98551 7.28534 18792 ft 416 kts 162°
2026-05-06 07:34 43.95885 7.30085 18437 ft 415 kts 162°
2026-05-06 07:34 43.93219 7.31635 18075 ft 414 kts 162°
2026-05-06 07:35 43.90568 7.33177 17723 ft 413 kts 162°
2026-05-06 07:35 43.87924 7.34714 17364 ft 411 kts 162°
2026-05-06 07:35 43.85295 7.36244 17008 ft 409 kts 161°
2026-05-06 07:35 43.82774 7.38093 16653 ft 412 kts 152°
2026-05-06 07:36 43.80477 7.40500 16300 ft 414 kts 145°
2026-05-06 07:36 43.78257 7.43007 15936 ft 411 kts 146°
2026-05-06 07:36 43.76039 7.45497 15573 ft 408 kts 146°
2026-05-06 07:36 43.73833 7.47958 15223 ft 406 kts 146°
2026-05-06 07:37 43.71638 7.50400 14866 ft 404 kts 146°
2026-05-06 07:37 43.69569 7.53047 14516 ft 406 kts 137°
2026-05-06 07:37 43.67871 7.56182 14162 ft 410 kts 126°
2026-05-06 07:37 43.66620 7.59677 13775 ft 414 kts 115°
2026-05-06 07:38 43.65662 7.63425 13405 ft 412 kts 114°
2026-05-06 07:38 43.64706 7.67167 13015 ft 409 kts 114°
2026-05-06 07:38 43.63759 7.70856 12640 ft 406 kts 114°
2026-05-06 07:38 43.62815 7.74516 12271 ft 403 kts 114°
2026-05-06 07:39 43.61877 7.78150 11908 ft 401 kts 114°
2026-05-06 07:39 43.60943 7.81759 11534 ft 399 kts 114°
2026-05-06 07:39 43.60016 7.85342 11165 ft 393 kts 114°
2026-05-06 07:39 43.59122 7.88805 10992 ft 373 kts 114°
2026-05-06 07:40 43.58281 7.92073 10859 ft 348 kts 114°
2026-05-06 07:40 43.57504 7.95088 10730 ft 321 kts 115°
2026-05-06 07:40 43.56776 7.97896 10462 ft 303 kts 115°
2026-05-06 07:40 43.56070 8.00591 10028 ft 294 kts 115°
2026-05-06 07:41 43.55293 8.03185 9803 ft 288 kts 126°
2026-05-06 07:41 43.54040 8.05265 9681 ft 280 kts 144°
2026-05-06 07:41 43.52397 8.06616 9554 ft 272 kts 163°
2026-05-06 07:41 43.50597 8.07138 9432 ft 267 kts 180°
2026-05-06 07:42 43.48769 8.06851 9305 ft 264 kts 197°
2026-05-06 07:42 43.47096 8.05770 9175 ft 264 kts 214°
2026-05-06 07:42 43.45687 8.04142 9053 ft 265 kts 220°
2026-05-06 07:42 43.44304 8.02468 8864 ft 264 kts 220°
2026-05-06 07:43 43.42923 8.00807 8618 ft 263 kts 220°
2026-05-06 07:43 43.41565 7.99175 8362 ft 262 kts 220°
2026-05-06 07:43 43.40193 7.97525 8096 ft 262 kts 219°
2026-05-06 07:43 43.38893 7.95767 7823 ft 263 kts 232°
2026-05-06 07:44 43.38167 7.93458 7570 ft 268 kts 256°
2026-05-06 07:44 43.38241 7.90882 7324 ft 276 kts 281°
2026-05-06 07:44 43.39065 7.88474 7080 ft 281 kts 296°
2026-05-06 07:44 43.40038 7.86142 6826 ft 281 kts 295°
2026-05-06 07:45 43.41003 7.83817 6573 ft 280 kts 295°
2026-05-06 07:45 43.41985 7.81507 6330 ft 280 kts 298°
2026-05-06 07:45 43.43056 7.79260 6092 ft 280 kts 300°
2026-05-06 07:45 43.44159 7.77064 5861 ft 279 kts 301°
2026-05-06 07:46 43.45275 7.74870 5621 ft 279 kts 301°
2026-05-06 07:46 43.46381 7.72688 5389 ft 278 kts 301°
2026-05-06 07:46 43.47477 7.70510 5215 ft 276 kts 300°
2026-05-06 07:46 43.48564 7.68330 5029 ft 276 kts 300°
2026-05-06 07:47 43.49645 7.66154 4809 ft 275 kts 300°
2026-05-06 07:47 43.50721 7.63987 4575 ft 273 kts 300°
2026-05-06 07:47 43.51794 7.61820 4344 ft 274 kts 300°
2026-05-06 07:47 43.52866 7.59652 4130 ft 271 kts 300°
2026-05-06 07:48 43.53897 7.57572 4023 ft 255 kts 300°
2026-05-06 07:48 43.54854 7.55641 3918 ft 234 kts 300°
2026-05-06 07:48 43.55745 7.53839 3831 ft 222 kts 300°
2026-05-06 07:48 43.56596 7.52113 3731 ft 213 kts 299°
2026-05-06 07:49 43.57412 7.50455 3629 ft 204 kts 299°
2026-05-06 07:49 43.58181 7.48890 3547 ft 196 kts 299°
2026-05-06 07:49 43.58957 7.47347 3440 ft 188 kts 300°
2026-05-06 07:49 43.59691 7.45917 3254 ft 177 kts 300°
2026-05-06 07:50 43.60377 7.44582 3110 ft 165 kts 300°
2026-05-06 07:50 43.60995 7.43380 2987 ft 148 kts 299°
2026-05-06 07:50 43.61567 7.42259 2802 ft 139 kts 298°
2026-05-06 07:50 43.62112 7.41191 2617 ft 134 kts 300°
2026-05-06 07:51 43.62640 7.40154 2437 ft 130 kts 300°
2026-05-06 07:51 43.63155 7.39138 2269 ft 128 kts 300°
2026-05-06 07:51 43.63664 7.38138 2095 ft 126 kts 301°
2026-05-06 07:51 43.64166 7.37152 1931 ft 125 kts 302°
2026-05-06 07:52 43.64663 7.36173 1768 ft 124 kts 302°
2026-05-06 07:52 43.65155 7.35203 1607 ft 123 kts 303°
2026-05-06 07:52 43.65646 7.34236 1444 ft 123 kts 304°
2026-05-06 07:52 43.66135 7.33274 1285 ft 122 kts 304°
2026-05-06 07:53 43.66622 7.32314 1124 ft 122 kts 304°
2026-05-06 07:53 43.67098 7.31356 1027 ft 121 kts 305°
2026-05-06 07:53 43.67569 7.30390 1018 ft 121 kts 304°
2026-05-06 07:53 43.68006 7.29383 915 ft 123 kts 297°
2026-05-06 07:54 43.68284 7.28275 758 ft 123 kts 285°
2026-05-06 07:54 43.68380 7.27104 618 ft 124 kts 272°
2026-05-06 07:54 43.68289 7.25921 469 ft 124 kts 260°
2026-05-06 07:54 43.68014 7.24788 319 ft 125 kts 247°
2026-05-06 07:55 43.67566 7.23758 160 ft 126 kts 235°
2026-05-06 07:55 43.66978 7.22872 69 ft 125 kts 224°
2026-05-06 07:55 43.66367 7.22034 31 ft 111 kts 224°
2026-05-06 07:55 43.65910 7.21397 21 ft 73 kts 225°
2026-05-06 07:56 43.65713 7.21132 24 ft 38 kts 224°
2026-05-06 07:56 43.65658 7.21055 25 ft 8 kts 228°
2026-05-06 07:56 43.65630 7.20969 23 ft 12 kts 265°
2026-05-06 07:56 43.65687 7.20893 22 ft 13 kts 349°
2026-05-06 07:57 43.65783 7.20871 23 ft 15 kts 349°
2026-05-06 07:57 43.65860 7.20824 22 ft 11 kts 284°
2026-05-06 07:57 43.65850 7.20729 23 ft 9 kts 306°
2026-05-06 07:57 43.65892 7.20668 23 ft 0 kts 315°